Date String (YYYY-MM-DD hh:mm:ss) UTC,Instrument flags,Ambient pressure (hPa),Sample flow (lpm),Bypass flow (lpm),Sample temperature (°C),Ambient temperature (°C),ASC tube jacket temperature (°C),LED temperature (°C),Box temperature (°C),Sample RH (%),Span deviation,Mass concentration (μg/m³),Mass concentration (μg/m³),Mass concentration (μg/m³)
DateTimeUTC,F1_M11,P_M11,Q1_M11,Q2_M11,T1_M11,T2_M11,T3_M11,T4_M11,T5_M11,U1_M11,ZSPAN_M11,X0_M11,X2_M11,X1_M11
2022-09-15 03:00:00,,0823.1,5.00,0.00,30.3,26.8,00.0,38.9,32.0,26.5,0000.0,0005.04,0001.98,0001.46
2022-09-15 03:01:00,,0823.1,5.01,0.00,30.2,27.0,00.0,38.9,31.8,26.6,0000.0,0005.13,0001.96,0001.44
2022-09-15 03:02:00,,0823.1,5.00,0.00,30.1,27.3,00.0,38.9,31.7,26.6,0000.0,0005.07,0001.97,0001.40
2022-09-15 03:03:00,,0823.1,5.01,0.00,30.1,27.6,00.0,38.8,31.7,26.5,0000.0,0004.80,0001.97,0001.38
2022-09-15 03:04:00,,0823.1,5.01,0.00,30.1,27.9,00.0,38.8,31.8,26.6,0000.0,0004.59,0001.86,0001.35
2022-09-15 03:05:00,,0823.1,5.01,0.00,30.0,28.1,00.0,38.8,31.7,26.8,0000.0,0004.65,0001.86,0001.34
2022-09-15 03:06:00,,0823.1,5.00,0.00,30.0,28.2,00.0,38.8,31.7,26.6,0000.0,0004.87,0001.89,0001.33
2022-09-15 03:07:00,,0823.1,5.01,0.00,30.0,28.3,00.0,38.8,31.8,26.6,0000.0,0005.76,0001.90,0001.32
2022-09-15 03:08:00,,0823.1,4.99,0.00,30.0,28.4,00.0,38.8,31.8,27.0,0000.0,0006.01,0001.95,0001.32
2022-09-15 03:09:00,,0823.1,5.00,0.00,30.0,28.5,00.0,38.8,31.8,26.9,0000.0,0005.89,0001.98,0001.32
2022-09-15 03:10:00,,0823.1,5.00,0.00,30.1,28.6,00.0,38.8,31.9,26.8,0000.0,0006.74,0002.06,0001.32
2022-09-15 03:11:00,,0823.1,5.00,0.00,30.1,28.6,00.0,38.8,31.9,26.8,0000.0,0007.32,0002.09,0001.30
2022-09-15 03:12:00,,0823.1,5.01,0.00,30.1,28.7,00.0,38.8,31.9,26.9,0000.0,0007.64,0002.13,0001.31
2022-09-15 03:13:00,,0823.1,4.99,0.00,30.1,28.7,00.0,38.8,32.0,26.8,0000.0,0007.71,0002.15,0001.30
2022-09-15 03:14:00,,0823.1,5.00,0.00,30.1,28.8,00.0,38.8,32.0,27.0,0000.0,0008.48,0002.19,0001.31
2022-09-15 03:15:00,,0823.1,5.01,0.00,30.1,28.8,00.0,38.8,32.0,27.1,0000.0,0008.84,0002.28,0001.33
2022-09-15 03:16:00,,0823.2,5.00,0.00,30.2,28.9,00.0,38.9,32.0,27.4,0000.0,0008.93,0002.29,0001.33
2022-09-15 03:17:00,,0823.1,5.00,0.00,30.2,28.9,00.0,38.9,32.0,27.4,0000.0,0009.29,0002.30,0001.32
2022-09-15 03:18:00,,0823.2,5.00,0.00,30.2,29.0,00.0,38.9,32.1,27.0,0000.0,0009.08,0002.30,0001.32
2022-09-15 03:19:00,,0823.2,4.99,0.00,30.2,29.0,00.0,38.9,32.1,26.7,0000.0,0008.92,0002.29,0001.31
2022-09-15 03:20:00,,0823.2,5.00,0.00,30.2,29.0,00.0,38.9,32.1,26.6,0000.0,0009.05,0002.34,0001.30
2022-09-15 03:21:00,,0823.1,5.00,0.00,30.3,29.1,00.0,38.9,32.1,25.9,0000.0,0008.58,0002.35,0001.30
2022-09-15 03:22:00,,0823.2,4.99,0.00,30.3,29.1,00.0,39.0,32.1,25.6,0000.0,0008.15,0002.28,0001.31
2022-09-15 03:23:00,,0823.2,5.01,0.00,30.3,29.1,00.0,39.0,32.2,26.1,0000.0,0007.44,0002.26,0001.31
2022-09-15 03:24:00,,0823.2,4.98,0.00,30.3,29.1,00.0,39.0,32.2,26.4,0000.0,0007.46,0002.23,0001.33
2022-09-15 03:25:00,,0823.2,5.01,0.00,30.3,29.1,00.0,39.0,32.2,25.4,0000.0,0006.22,0002.13,0001.31
2022-09-15 03:26:00,,0823.2,4.98,0.00,30.4,29.1,00.0,39.0,32.2,25.3,0000.0,0005.21,0002.01,0001.29
2022-09-15 03:27:00,,0823.2,5.01,0.00,30.4,29.2,00.0,39.0,32.2,25.7,0000.0,0004.74,0001.92,0001.27
2022-09-15 03:28:00,,0823.2,5.01,0.00,30.4,29.2,00.0,39.1,32.2,25.3,0000.0,0003.92,0001.83,0001.25
2022-09-15 03:29:00,,0823.2,5.00,0.00,30.4,29.2,00.0,39.1,32.2,24.5,0000.0,0003.41,0001.79,0001.24
2022-09-15 03:30:00,,0823.2,5.00,0.00,30.4,29.2,00.0,39.1,32.3,23.9,0000.0,0003.14,0001.71,0001.23
2022-09-15 03:31:00,,0823.2,5.00,0.00,30.4,29.2,00.0,39.1,32.3,24.0,0000.0,0002.73,0001.59,0001.21
2022-09-15 03:32:00,,0823.2,5.00,0.00,30.5,29.2,00.0,39.1,32.3,24.3,0000.0,0002.48,0001.50,0001.19
2022-09-15 03:33:00,,0823.1,5.00,0.00,30.5,29.3,00.0,39.2,32.3,23.9,0000.0,0002.52,0001.51,0001.17
2022-09-15 03:34:00,,0823.2,5.01,0.00,30.5,29.3,00.0,39.2,32.3,23.5,0000.0,0002.35,0001.43,0001.15
2022-09-15 03:35:00,,0823.1,5.00,0.00,30.5,29.2,00.0,39.2,32.3,23.3,0000.0,0002.18,0001.37,0001.11
2022-09-15 03:36:00,,0823.1,4.99,0.00,30.5,27.9,00.0,39.2,32.3,23.1,0000.0,0002.03,0001.36,0001.10
2022-09-15 03:37:00,,0823.2,5.00,0.00,30.5,27.0,00.0,39.1,32.2,23.3,0000.0,0001.91,0001.37,0001.11
2022-09-15 03:38:00,,0823.1,5.00,0.00,30.4,26.8,00.0,39.1,32.0,23.1,0000.0,0001.91,0001.37,0001.10
2022-09-15 03:39:00,,0823.1,5.02,0.00,30.3,27.1,00.0,39.0,31.9,23.3,0000.0,0002.06,0001.38,0001.09
2022-09-15 03:40:00,,0823.1,5.01,0.00,30.2,27.4,00.0,39.0,31.8,23.5,0000.0,0001.90,0001.34,0001.09
2022-09-15 03:41:00,,0823.1,5.01,0.00,30.2,27.7,00.0,39.0,31.8,23.4,0000.0,0001.83,0001.32,0001.07
2022-09-15 03:42:00,,0823.1,5.00,0.00,30.1,27.9,00.0,38.9,31.8,23.4,0000.0,0001.82,0001.30,0001.06
2022-09-15 03:43:00,,0823.1,5.00,0.00,30.1,28.1,00.0,38.9,31.8,23.4,0000.0,0001.78,0001.29,0001.06
2022-09-15 03:44:00,,0823.1,5.00,0.00,30.1,28.3,00.0,38.9,31.9,23.4,0000.0,0001.64,0001.22,0001.06
2022-09-15 03:45:00,,0823.1,5.00,0.00,30.1,28.4,00.0,38.9,31.9,23.4,0000.0,0001.58,0001.19,0001.06
2022-09-15 03:46:00,,0823.1,4.99,0.00,30.1,28.5,00.0,38.9,31.9,23.2,0000.0,0001.50,0001.16,0001.04
2022-09-15 03:47:00,,0823.1,5.02,0.00,30.1,28.5,00.0,38.9,31.9,23.4,0000.0,0001.49,0001.15,0001.04
2022-09-15 03:48:00,,0823.2,5.00,0.00,30.1,28.6,00.0,38.9,32.0,23.3,0000.0,0001.91,0001.15,0001.04
2022-09-15 03:49:00,,0823.2,5.01,0.00,30.2,28.7,00.0,38.9,32.0,23.5,0000.0,0002.00,0001.17,0001.03
2022-09-15 03:50:00,,0823.2,5.00,0.00,30.2,28.7,00.0,38.9,32.0,23.2,0000.0,0001.91,0001.16,0001.04
2022-09-15 03:51:00,,0823.2,5.00,0.00,30.2,28.8,00.0,38.9,32.0,22.9,0000.0,0001.89,0001.17,0001.04
2022-09-15 03:52:00,,0823.3,5.00,0.00,30.2,28.8,00.0,38.9,32.0,22.8,0000.0,0001.90,0001.18,0001.05
2022-09-15 03:53:00,,0823.2,5.01,0.00,30.2,28.8,00.0,38.9,32.0,22.6,0000.0,0001.91,0001.18,0001.06
2022-09-15 03:54:00,,0823.2,4.99,0.00,30.2,28.9,00.0,38.9,32.0,22.4,0000.0,0001.94,0001.21,0001.08
2022-09-15 03:55:00,,0823.2,5.00,0.00,30.2,28.9,00.0,39.0,32.1,22.6,0000.0,0002.07,0001.24,0001.09
2022-09-15 03:56:00,,0823.3,5.00,0.00,30.2,28.9,00.0,39.0,32.1,22.5,0000.0,0002.11,0001.27,0001.11
2022-09-15 03:57:00,,0823.3,5.00,0.00,30.3,28.9,00.0,39.0,32.1,22.5,0000.0,0002.14,0001.30,0001.13
2022-09-15 03:58:00,,0823.3,4.99,0.00,30.3,28.9,00.0,39.0,32.1,22.5,0000.0,0002.16,0001.32,0001.16
2022-09-15 03:59:00,,0823.3,5.01,0.00,30.3,29.0,00.0,39.0,32.1,22.3,0000.0,0001.90,0001.34,0001.18
